This is the latest recevied weather packets stored in our database for station/object N5XJB. If no packets are shown the sender has not sent any weather packets the latest 10 day(s).
| Time | Temp. | Humidity | Pressure | Rain* | Wind** | Luminosity | Snow |
|---|---|---|---|---|---|---|---|
| 1777764826 | 23.89° C | 46% | 1019.3 hPa | 0 mm | - | 45 W/m² | - |
| 1777764523 | 23.89° C | 46% | 1019.3 hPa | 0 mm | - | 46 W/m² | - |
| 1777764219 | 23.89° C | 46% | 1019.6 hPa | 0 mm | - | 48 W/m² | - |
| 1777763916 | 23.89° C | 44% | 1019.3 hPa | 0 mm | - | 50 W/m² | - |
| 1777763614 | 24.44° C | 45% | 1019.3 hPa | 0 mm | - | 51 W/m² | - |
| 1777763312 | 24.44° C | 45% | 1019.3 hPa | 0 mm | - | 53 W/m² | - |
| 1777763010 | 24.44° C | 44% | 1019.3 hPa | 0 mm | - | 55 W/m² | - |
| 1777762706 | 24.44° C | 44% | 1019.3 hPa | 0 mm | - | 56 W/m² | - |
| 1777762403 | 24.44° C | 45% | 1019.3 hPa | 0 mm | - | 59 W/m² | - |
| 1777762100 | 25° C | 45% | 1019.3 hPa | 0 mm | - | 60 W/m² | - |
| 1777761796 | 25.56° C | 42% | 1019.3 hPa | 0 mm | - | 91 W/m² | - |
| 1777761494 | 25.56° C | 42% | 1019.3 hPa | 0 mm | - | 332 W/m² | - |
| 1777761192 | 25.56° C | 42% | 1019.3 hPa | 0 mm | - | 376 W/m² | - |
| 1777760889 | 25.56° C | 42% | 1019.3 hPa | 0 mm | - | 376 W/m² | - |
| 1777760586 | 25.56° C | 42% | 1019.3 hPa | 0 mm | - | 392 W/m² | - |
| 1777760282 | 25.56° C | 41% | 1019.6 hPa | 0 mm | - | 416 W/m² | - |
| 1777759978 | 25.56° C | 42% | 1019.6 hPa | 0 mm | - | 435 W/m² | - |
| 1777759675 | 25.56° C | 42% | 1019.3 hPa | 0 mm | - | 453 W/m² | - |
| 1777759371 | 25.56° C | 42% | 1019.6 hPa | 0 mm | - | 473 W/m² | - |
| 1777759068 | 25.56° C | 40% | 1019.6 hPa | 0 mm | - | 489 W/m² | - |
| 1777758765 | 26.11° C | 41% | 1019.3 hPa | 0 mm | - | 508 W/m² | - |
| 1777758462 | 25.56° C | 41% | 1019.6 hPa | 0 mm | - | 526 W/m² | - |
| 1777758159 | 25.56° C | 42% | 1019.6 hPa | 0 mm | - | 542 W/m² | - |
| 1777757856 | 25.56° C | 45% | 1019.6 hPa | 0 mm | - | 564 W/m² | - |
| 1777757554 | 25.56° C | 42% | 1019.6 hPa | 0 mm | - | 576 W/m² | - |
* Rain latest hour (hover to see other rain measurements)
** Current wind speed in m/s (hover to see current wind gust speed)